Cloud_Cover
92 92 92 88 88 88 92 92 92 92 92 88 88 88 88 88 88 88 88 88 88 88 92 92 92 92 88 88 88 88 76 56 36 44 56 68 76 76 76 64 56 44 44 36 36 32 20 0 0 0 0 0 0 0 0 0 0 0 0 0 0 0 0 0 0 0 0 0 0
88 88 88 92 88 92 92 92 92 92 92 92 92 88 88 88 88 88 88 88 88 92 92 92 88 88 88 88 88 88 88 80 76 56 44 44 48 56 56 56 76 68 56 44 48 44 36 24 48 44 24 12 0 0 0 0 0 0 0 0 0 0 0 0 0 0 0 0 0
80 76 76 80 88 88 88 92 92 92 92 92 92 92 92 92 92 92 88 88 88 92 92 88 88 88 88 88 88 88 88 88 88 80 80 80 76 80 80 80 88 76 56 56 64 76 76 48 76 64 36 24 12 8 0 0 0 0 0 0 0 0 0 0 0 0 0 0 0
88 80 68 68 68 76 80 80 80 88 92 88 88 88 92 92 92 92 88 88 92 92 92 92 88 88 88 88 88 88 88 88 88 88 88 88 80 80 88 88 80 80 80 64 64 64 64 48 64 48 36 36 32 24 32 44 20 24 32 32 44 44 24 0 0 0 0 0 0
88 88 88 80 88 92 92 88 88 88 92 92 88 92 92 92 92 92 92 92 92 92 92 92 92 88 88 92 80 64 44 44 76 88 88 88 68 76 88 88 56 64 88 80 64 56 48 48 76 68 64 88 76 64 56 56 48 56 64 64 76 68 48 36 8 0 0 0 0
56 68 76 92 92 92 92 92 92 92 92 92 92 88 88 88 88 88 88 92 92 92 92 92 92 88 88 88 88 88 76 44 76 88 88 88 64 68 80 88 88 88 88 88 80 80 76 64 80 88 88 88 92 92 92 92 92 88 80 92 88 88 80 80 36 20 12 12 24
76 80 88 92 92 92 92 92 92 92 92 92 92 92 88 92 88 88 88 88 88 68 56 88 76 80 88 88 88 88 88 88 56 68 88 88 80 80 88 88 76 76 80 80 76 76 80 64 68 80 80 68 88 80 76 92 92 92 88 88 92 92 92 92 92 88 76 48 80
44 68 80 80 76 76 80 92 92 92 92 92 88 88 88 92 88 88 88 88 88 88 88 88 76 80 88 88 88 88 88 88 88 88 88 88 88 80 76 80 32 20 24 36 68 88 92 88 88 88 92 88 92 88 76 80 88 76 68 68 80 88 88 92 92 92 92 92 92
48 64 80 80 80 80 80 68 76 80 80 80 88 88 88 92 88 88 88 88 80 80 88 80 80 80 88 88 88 88 88 88 88 88 88 88 88 80 76 68 36 32 36 24 44 64 76 92 80 80 80 76 76 80 76 68 68 76 88 92 92 88 80 88 76 80 88 88 92
80 80 80 80 80 80 76 48 76 80 80 80 76 76 80 88 88 80 80 80 64 56 44 12 32 44 56 56 76 80 88 88 88 88 88 88 88 80 76 68 76 80 76 48 64 76 80 92 88 88 88 88 88 80 76 76 88 92 92 92 92 88 88 88 88 80 80 92 92
80 80 80 80 80 80 80 80 80 80 80 80 80 80 80 80 80 80 80 88 80 80 68 12 0 8 20 44 56 64 68 88 88 88 88 88 88 88 88 88 76 76 76 76 88 88 88 92 92 92 92 92 92 92 88 88 92 92 92 92 92 92 92 92 92 92 92 92 88
80 80 80 80 80 80 80 80 80 80 80 80 80 80 80 80 80 80 80 80 80 80 64 8 0 0 0 8 20 32 56 88 88 88 88 88 88 88 88 88 88 88 80 76 80 88 88 88 92 92 92 92 88 88 92 88 92 92 92 92 92 92 92 88 92 92 92 92 92
80 80 80 80 80 80 80 80 80 80 80 80 80 80 80 80 80 80 80 80 80 80 64 0 0 0 0 0 0 8 36 88 88 88 88 88 88 80 80 88 88 88 88 88 88 88 88 88 80 80 88 88 88 88 88 80 88 88 80 80 88 88 92 88 92 92 92 92 88
80 80 80 80 80 80 80 80 80 80 80 80 80 80 80 80 80 80 80 80 80 80 64 0 0 0 0 0 0 12 44 88 88 88 88 88 88 80 76 88 88 88 88 88 88 88 88 88 88 80 80 88 80 80 88 88 88 88 80 80 80 80 80 68 80 80 80 80 76
80 80 80 80 80 80 80 80 80 80 80 80 80 80 80 80 80 80 80 80 80 68 36 0 0 0 0 0 8 32 64 88 76 76 88 88 88 88 88 88 88 88 88 88 88 88 88 88 88 88 88 88 88 88 88 88 88 88 88 88 88 80 76 56 68 76 76 80 64
80 80 80 80 80 80 80 80 80 80 80 80 80 80 80 80 80 80 80 80 80 36 0 0 0 0 0 0 20 56 80 64 56 68 80 76 80 88 88 88 88 80 76 80 88 88 88 88 88 88 88 88 88 80 80 88 88 88 88 88 88 88 88 88 76 76 88 88 76
80 80 80 80 80 80 80 80 80 80 80 80 80 80 80 80 80 80 76 56 44 20 0 0 0 0 0 0 12 44 68 56 76 88 80 68 80 80 80 88 88 80 76 80 88 88 88 88 88 88 88 88 88 76 68 88 88 88 88 88 88 88 88 88 88 88 88 88 88
80 80 80 80 80 64 48 44 68 76 80 80 80 76 68 76 76 56 32 12 0 0 0 0 0 0 0 0 0 32 76 80 80 80 80 80 88 88 88 88 88 88 88 80 88 88 88 88 88 88 88 88 88 80 80 88 88 88 80 76 64 76 88 88 88 88 88 88 88
80 80 80 76 44 20 8 0 24 32 32 32 32 32 24 32 24 12 0 0 0 0 0 0 0 0 0 0 0 20 36 36 76 80 80 80 88 88 88 80 80 80 88 88 88 88 88 88 88 88 88 88 88 88 88 88 88 88 80 76 64 76 88 88 88 88 88 88 88
80 76 64 36 8 0 0 0 0 0 0 0 0 0 0 0 0 0 0 0 0 0 0 0 0 0 0 0 0 0 0 0 24 32 32 32 56 76 80 80 80 80 80 80 80 88 88 88 88 88 88 88 88 88 88 88 88 88 88 88 88 88 88 88 88 88 88 88 88
76 56 24 0 0 0 0 0 0 0 0 0 0 0 0 0 0 0 0 0 0 0 0 0 0 0 0 0 0 0 0 0 0 0 0 0 20 32 36 36 76 80 80 80 80 80 88 88 88 88 88 88 88 88 88 88 88 88 88 88 88 88 88 88 88 88 88 88 88
36 12 0 0 0 0 0 0 0 0 0 0 0 0 0 0 0 0 0 0 0 0 0 0 0 0 0 0 0 0 0 0 0 0 0 0 12 36 64 64 76 80 80 80 80 80 88 88 88 76 56 48 80 76 64 88 88 88 88 88 88 88 88 88 88 88 88 88 88
0 0 0 0 0 0 0 0 0 0 0 0 0 0 0 0 0 0 0 0 0 0 0 0 0 0 0 0 0 0 0 0 0 0 0 20 56 76 80 80 80 76 68 80 80 80 80 64 80 80 76 76 48 56 76 88 88 88 88 88 88 88 80 64 80 88 88 88 88
0 0 0 0 0 0 0 0 0 0 0 0 0 0 0 0 0 0 0 0 0 0 0 0 0 0 0 0 0 0 0 0 0 0 12 68 80 80 80 80 44 56 76 76 80 80 80 80 64 68 88 88 56 64 80 76 80 88 88 88 88 88 80 80 88 88 88 88 88
0 0 0 0 0 0 0 0 0 0 0 0 0 0 0 0 0 0 0 0 0 0 0 0 0 0 0 0 0 0 0 0 0 12 44 80 80 80 68 32 64 76 76 44 76 88 88 88 80 80 88 88 80 80 88 80 88 88 88 88 88 88 76 32 76 88 88 88 88
0 0 0 0 0 0 0 0 0 0 0 0 0 0 0 0 0 0 0 0 0 0 0 0 0 0 0 0 0 0 0 0 8 32 48 44 48 68 80 68 80 80 80 76 80 88 88 88 88 88 88 88 88 88 88 88 88 88 88 88 88 88 80 76 64 68 88 88 88
0 0 0 0 0 0 0 0 0 0 0 0 0 0 0 0 0 0 0 0 0 0 0 0 0 0 0 0 0 0 0 0 24 24 24 36 36 56 80 80 80 80 80 80 88 88 88 88 88 88 88 88 88 88 88 88 88 88 88 88 88 88 88 88 80 80 88 88 88
0 0 0 0 0 0 0 0 0 0 0 0 0 0 0 0 0 0 0 0 0 0 0 0 0 0 0 0 0 12 20 0 8 44 76 76 76 80 80 80 80 80 80 80 88 88 88 88 88 88 88 88 88 88 88 88 88 88 88 88 88 88 88 88 88 88 88 80 88
0 0 0 0 0 0 0 0 0 0 0 0 0 0 0 0 0 0 0 0 0 0 0 0 0 0 0 0 24 24 32 80 80 80 80 80 80 80 80 80 80 80 80 80 88 88 88 88 88 88 88 88 88 88 88 88 88 88 88 88 88 88 88 88 88 88 88 88 80
0 0 0 0 0 0 0 0 0 0 0 0 0 0 0 0 0 0 0 0 0 0 0 0 0 0 12 48 32 56 64 0 64 80 80 80 80 80 80 80 76 36 0 8 64 88 88 88 88 88 88 88 88 88 88 88 88 88 88 88 88 88 88 88 88 88 88 88 88
0 0 0 0 0 0 0 0 0 0 0 0 0 0 0 0 0 0 0 0 0 0 0 0 0 8 12 12 12 44 80 80 80 80 80 80 80 76 64 24 8 0 0 8 64 88 88 88 88 88 88 88 88 88 88 88 88 88 88 88 88 88 88 88 88 88 88 80 80
0 0 0 0 0 0 0 0 0 0 0 0 0 0 0 0 0 0 0 0 0 0 0 0 0 20 36 56 76 80 80 80 80 80 80 80 76 64 32 0 0 0 0 8 64 88 88 88 88 88 88 88 88 88 88 88 88 88 88 88 88 88 88 88 88 88 88 80 80
0 0 0 0 0 0 0 0 0 0 0 0 0 0 0 0 0 0 0 0 0 0 0 0 0 0 20 76 76 76 76 80 80 80 76 68 36 12 0 0 0 0 0 0 64 80 88 88 88 88 88 88 88 88 88 88 80 88 88 88 88 88 88 88 88 88 88 80 80
0 0 0 0 0 0 0 0 0 0 0 0 0 0 0 0 0 0 0 0 0 0 0 0 0 0 12 68 76 76 76 80 80 76 48 0 0 0 0 0 0 0 0 0 48 76 80 88 88 88 88 88 88 88 88 88 88 88 88 88 88 88 88 88 80 80 80 80 80
0 0 0 0 0 0 0 0 0 0 0 0 0 0 0 0 0 0 0 0 0 0 0 0 0 0 8 24 64 76 76 68 64 36 12 0 0 0 0 0 0 0 0 0 0 24 56 88 88 88 88 76 80 88 88 88 88 88 88 88 88 88 88 88 64 76 88 80 80
0 0 0 0 0 0 0 0 0 0 0 0 0 0 0 0 0 0 0 0 0 0 0 0 0 0 0 20 56 64 44 20 0 0 0 0 0 0 0 0 0 0 0 0 0 0 24 88 88 88 80 56 76 80 88 88 88 88 88 88 80 80 80 80 80 80 80 80 88
0 0 0 0 0 0 0 0 0 0 0 0 0 0 0 0 0 0 0 0 0 0 0 0 0 0 0 0 32 20 0 0 0 0 0 0 0 0 0 0 0 0 0 0 0 8 32 88 88 88 80 76 56 68 88 88 88 88 80 80 80 80 80 80 80 80 80 80 80
0 0 0 0 0 0 0 0 0 0 0 0 0 0 0 0 0 0 0 0 0 0 0 0 0 0 0 0 0 0 0 0 0 0 0 0 0 0 0 0 0 0 0 0 0 8 32 88 88 88 80 68 56 64 76 88 80 80 80 76 80 80 80 76 80 88 80 76 76
0 0 0 0 0 0 0 0 0 0 0 0 0 0 0 0 0 0 0 0 0 0 0 0 0 0 0 0 0 0 0 0 0 0 0 0 0 0 0 0 0 0 0 0 0 12 44 88 88 88 88 88 76 68 76 80 80 80 80 80 76 76 80 80 80 80 80 64 80
0 0 0 0 0 0 0 0 0 0 0 0 0 0 0 0 0 0 0 0 0 0 0 0 0 0 0 0 0 0 0 0 0 0 0 0 0 0 0 0 0 0 0 0 0 32 68 88 88 88 88 88 88 88 88 80 80 80 80 80 76 68 76 80 80 80 80 80 68
0 0 0 0 0 0 0 0 0 0 0 0 0 0 0 0 0 0 0 0 0 0 0 0 0 0 0 0 0 0 0 0 0 0 0 0 0 0 0 0 0 0 0 0 32 64 80 88 88 88 88 88 88 88 88 80 80 80 80 80 80 76 68 56 76 80 80 80 68